Date,TemperatureHighF,TemperatureAvgF,TemperatureLowF,DewpointHighF,DewpointAvgF,DewpointLowF,HumidityHigh,HumidityAvg,HumidityLow,PressureMaxIn,PressureMinIn,WindSpeedMaxMPH,WindSpeedAvgMPH,GustSpeedMaxMPH,PrecipitationSumIn
2013-2-1,41.0,30.8,21.3,31.1,14.4,6.8,71,51,33,30.28,29.79,16,6,25,0.00
2013-2-2,41.4,29.7,17.7,29.6,17.9,12.1,88,64,36,30.31,29.95,7,1,14,0.00
2013-2-3,46.7,38.3,29.2,32.6,26.6,20.6,91,64,45,29.95,29.78,16,6,24,0.00
2013-2-4,51.0,35.1,23.5,28.0,24.0,19.4,86,66,39,30.05,29.90,6,0,24,0.00
2013-2-5,58.6,41.2,27.6,39.1,30.6,24.4,90,69,37,29.90,29.82,12,2,18,0.00
2013-2-6,62.9,46.4,32.3,33.9,27.6,17.4,91,53,17,30.15,29.89,6,0,15,0.00
2013-2-7,43.3,38.0,33.9,38.2,32.6,25.9,94,81,65,30.22,29.96,2,0,8,0.71
2013-2-8,56.0,43.7,35.3,46.8,36.9,27.0,96,79,45,30.02,29.79,14,2,16,0.00
2013-2-9,58.5,39.8,25.5,28.9,25.2,20.4,90,61,23,30.25,29.99,3,0,16,0.00
2013-2-10,54.9,40.7,29.4,39.4,29.9,24.7,93,70,32,30.35,30.09,7,0,10,0.13
2013-2-11,57.5,48.5,40.6,54.3,43.0,31.7,97,83,47,30.10,29.86,6,0,10,0.08
2013-2-12,58.8,49.5,40.3,40.2,30.5,23.7,90,50,31,30.00,29.81,7,1,12,0.04
2013-2-13,44.9,41.7,32.9,43.3,39.2,30.3,95,91,72,29.84,29.55,11,0,13,0.18
2013-2-14,54.5,40.9,29.3,36.1,31.7,27.0,95,73,42,29.98,29.78,4,0,11,0.01
2013-2-15,60.7,41.9,25.7,39.3,31.8,24.0,95,71,36,30.02,29.83,9,2,13,0.00
2013-2-16,40.6,35.2,27.8,32.4,24.1,13.1,90,64,48,29.92,29.74,10,3,16,0.04
2013-2-17,38.8,30.3,24.2,14.9,11.3,5.8,67,45,33,30.18,29.92,14,7,19,0.00
2013-2-18,53.6,35.3,18.9,27.9,21.2,13.8,86,60,34,30.30,30.10,6,1,18,0.00
2013-2-19,55.6,41.0,28.8,44.6,29.6,15.7,93,68,34,30.11,29.75,18,3,33,0.05
2013-2-20,53.2,40.9,28.0,15.7,10.0,3.5,57,30,13,30.04,29.92,14,5,33,0.00
2013-2-21,58.1,39.7,21.3,35.2,19.4,13.4,86,49,19,30.18,30.00,5,0,11,0.05
2013-2-22,39.0,36.6,33.4,37.0,34.9,31.3,95,94,88,30.21,30.03,1,0,9,0.37
2013-2-23,49.4,40.6,34.9,44.4,38.4,33.6,95,92,82,30.07,29.75,3,0,7,0.16
2013-2-24,61.0,46.6,34.5,40.8,32.4,26.5,96,64,29,29.94,29.75,10,2,16,0.01
2013-2-25,45.1,36.7,29.2,31.0,27.7,25.0,89,71,53,30.11,29.92,3,0,11,0.00
2013-2-26,37.5,35.0,31.9,36.2,32.2,25.2,95,90,61,30.02,29.51,3,0,7,1.33
2013-2-27,57.3,44.5,31.9,40.4,36.3,30.6,97,75,50,29.71,29.57,12,2,14,0.01
2013-2-28,44.3,40.1,35.9,30.9,27.4,24.9,70,60,54,29.81,29.61,17,6,24,0.00